This is the latest recevied weather packets stored in our database for station/object SV9TNF-4. If no packets are shown the sender has not sent any weather packets the latest 10 day(s).
| Time | Temp. | Humidity | Pressure | Rain* | Wind** | Luminosity | Snow |
|---|---|---|---|---|---|---|---|
| 1777538388 | 23.89° C | 51% | 1017.6 hPa | 0 mm | 4.92 m/s, 151° | - | - |
| 1777538088 | 23.89° C | 51% | 1017.6 hPa | 0 mm | 4.92 m/s, 151° | - | - |
| 1777537788 | 23.89° C | 41% | 1017.3 hPa | 0 mm | 1.79 m/s, 199° | - | - |
| 1777537488 | 23.89° C | 41% | 1017.3 hPa | 0 mm | 1.79 m/s, 199° | - | - |
| 1777537188 | 23.89° C | 41% | 1017.3 hPa | 0 mm | 1.79 m/s, 199° | - | - |
| 1777536888 | 23.33° C | 39% | 1017.3 hPa | 0 mm | 6.26 m/s, 218° | - | - |
| 1777536288 | 23.33° C | 39% | 1017.3 hPa | 0 mm | 6.26 m/s, 218° | - | - |
| 1777535987 | 22.78° C | 46% | 1017.3 hPa | 0 mm | 4.92 m/s, 207° | - | - |
| 1777535387 | 22.78° C | 46% | 1017.3 hPa | 0 mm | 4.92 m/s, 207° | - | - |
| 1777534787 | 22.78° C | 46% | 1017.3 hPa | 0 mm | 4.92 m/s, 207° | - | - |
| 1777534487 | 22.78° C | 46% | 1017.3 hPa | 0 mm | 4.92 m/s, 207° | - | - |
| 1777534187 | 22.78° C | 46% | 1017.3 hPa | 0 mm | 4.92 m/s, 207° | - | - |
| 1777533587 | 22.78° C | 46% | 1017.3 hPa | 0 mm | 4.92 m/s, 207° | - | - |
| 1777533286 | 22.78° C | 45% | 1017.3 hPa | 0 mm | 4.92 m/s, 224° | - | - |
| 1777532986 | 22.78° C | 45% | 1017.3 hPa | 0 mm | 4.92 m/s, 224° | - | - |
| 1777531486 | 22.22° C | 40% | 1017.3 hPa | 0 mm | 1.79 m/s, 13° | - | - |
| 1777531186 | 22.22° C | 40% | 1017.3 hPa | 0 mm | 1.79 m/s, 13° | - | - |
| 1777530886 | 22.22° C | 40% | 1017.3 hPa | 0 mm | 1.79 m/s, 13° | - | - |
| 1777530586 | 22.22° C | 40% | 1017.3 hPa | 0 mm | 1.79 m/s, 13° | - | - |
| 1777530285 | 22.22° C | 40% | 1017.3 hPa | 0 mm | 1.79 m/s, 13° | - | - |
| 1777529985 | 22.22° C | 40% | 1017.3 hPa | 0 mm | 1.79 m/s, 13° | - | - |
| 1777529685 | 22.22° C | 40% | 1017.3 hPa | 0 mm | 1.79 m/s, 13° | - | - |
| 1777529385 | 22.22° C | 40% | 1017.3 hPa | 0 mm | 1.79 m/s, 13° | - | - |
| 1777529085 | 22.22° C | 40% | 1017.3 hPa | 0 mm | 1.79 m/s, 13° | - | - |
| 1777528785 | 22.22° C | 40% | 1017.3 hPa | 0 mm | 1.79 m/s, 13° | - | - |
* Rain latest hour (hover to see other rain measurements)
** Current wind speed in m/s (hover to see current wind gust speed)